Home   Weather   Jeddah   Past weeks
Flag for Saudi Arabia

Past Weather in Jeddah, Saudi Arabia — Yesterday and Last 2 Weeks

Now
72 °F

Clear.


Feels Like: 74 °F
Forecast: 73 / 80 °F
Wind: 5 mph from North

Location: Jeddah King Abdul Aziz International Airport

Current Time: Jan 16, 2019 at 2:52:22 am

Latest Report: Jan 16, 2019 at 2:00 am


Visibility: 10 mi

Pressure: 29.95 "Hg

Humidity: 73%

Dew Point: 63 °F

Location of JeddahLocation

Past Weather in Jeddah — Graph

°F

Jeddah Temperature Yesterday

Maximum temperature yesterday: 82 °F (at 1:00 pm)
Minimum temperature yesterday: 72 °F (at 5:00 am)
Average temperature yesterday: 76 °F

High & Low Weather Summary for the Past Weeks

 TemperatureHumidityPressure
High91 °F (Jan 13, 1:00 pm)88% (Jan 13, 7:00 am)30.15 "Hg (Jan 13, 7:00 am)
Low66 °F (Jan 8, 6:00 am)30% (Jan 10, 12:00 pm)29.80 "Hg (Jan 13, 2:00 pm)
Average77 °F61%29.99 "Hg
* Reported Jan 1 1:00 am — Jan 16 1:00 am, Jeddah. Weather by CustomWeather, © 2019

Note: Actual official high and low records may vary slightly from our data, if they occured in-between our weather recording intervals... More about our weather records

Advertising

Jeddah Weather History for the Previous 24 Hours

Scroll right to see more
 ConditionsComfort  
Time TempWeatherWind HumidityBarometerVisibility
1:00 am
Wed, Jan 16
73 °FClear.5 mph69%29.95 "Hg10 mi
12:00 am73 °FClear.9 mph69%29.98 "Hg10 mi
11:00 pm
Tue, Jan 15
73 °FClear.7 mph69%29.98 "Hg10 mi
10:00 pm75 °FClear.9 mph65%29.98 "Hg10 mi
9:00 pm75 °FClear.10 mph69%29.98 "Hg10 mi
8:00 pm75 °FClear.10 mph65%29.98 "Hg10 mi
7:00 pm77 °FClear.12 mph61%29.95 "Hg10 mi
6:00 pm79 °FSunny.10 mph61%29.95 "Hg10 mi
5:00 pm81 °FSunny.8 mph54%29.95 "Hg10 mi
4:00 pm81 °FSunny.9 mph54%29.92 "Hg10 mi
3:00 pm82 °FSunny.7 mph48%29.92 "Hg10 mi
2:00 pm82 °FSunny.5 mph48%29.92 "Hg10 mi
1:00 pm82 °FSunny.7 mph48%29.95 "Hg10 mi
12:00 pm81 °FSunny.No wind45%29.98 "Hg10 mi
11:00 am79 °FSunny.5 mph48%30.01 "Hg10 mi
10:00 am77 °FSunny.9 mph51%30.01 "Hg10 mi
9:00 am73 °FSunny.7 mph53%30.01 "Hg10 mi
8:00 am72 °FSunny.5 mph57%29.98 "Hg10 mi
7:00 am72 °FPassing clouds.3 mph57%29.98 "HgN/A
6:00 am72 °FPassing clouds.7 mph57%29.95 "HgN/A
5:00 am72 °FPassing clouds.6 mph61%29.95 "HgN/A
4:00 am73 °FPassing clouds.7 mph61%29.95 "HgN/A
3:00 am73 °FPassing clouds.7 mph61%29.95 "HgN/A
2:00 am73 °FPassing clouds.3 mph61%29.95 "HgN/A
Weather by CustomWeather, © 2019

See weather overview